This is the latest recevied weather packets stored in our database for station/object KT5AL. If no packets are shown the sender has not sent any weather packets the latest 1 day(s).
| Time | Temp. | Humidity | Pressure | Rain* | Wind** | Luminosity | Snow |
|---|---|---|---|---|---|---|---|
| 1778097908 | 17.78° C | 68% | 1014.8 hPa | 0 mm | - | - | - |
| 1778097008 | 17.78° C | 67% | 1014.8 hPa | 0 mm | - | - | - |
| 1778096705 | 17.78° C | 69% | 1015.1 hPa | 0 mm | - | - | - |
| 1778096408 | 17.22° C | 68% | 1015.1 hPa | 0 mm | - | - | - |
| 1778095505 | 17.22° C | 69% | 1015.1 hPa | 0 mm | - | - | - |
| 1778094905 | 17.22° C | 71% | 1015.1 hPa | 0 mm | - | - | - |
| 1778094608 | 16.67° C | 71% | 1015.1 hPa | 0 mm | - | - | - |
| 1778094305 | 16.11° C | 72% | 1015.1 hPa | 0 mm | - | - | - |
| 1778093403 | 16.11° C | 76% | 1015.1 hPa | 0 mm | - | - | - |
| 1778093106 | 16.11° C | 77% | 1015.4 hPa | 0 mm | - | - | - |
| 1778092807 | 15.56° C | 75% | 1015.4 hPa | 0 mm | - | - | - |
| 1778091904 | 14.44° C | 78% | 1015.8 hPa | 0 mm | - | - | - |
| 1778091309 | 14.44° C | 80% | 1015.8 hPa | 0 mm | - | - | - |
| 1778091006 | 14.44° C | 80% | 1015.8 hPa | 0 mm | - | - | - |
| 1778090107 | 14.44° C | 79% | 1016.5 hPa | 0 mm | - | - | - |
| 1778089804 | 14.44° C | 81% | 1016.5 hPa | 0 mm | - | - | - |
| 1778089507 | 13.89° C | 81% | 1016.5 hPa | 0 mm | - | - | - |
| 1778088903 | 13.33° C | 83% | 1017.1 hPa | 0 mm | - | - | - |
| 1778088606 | 13.33° C | 86% | 1017.1 hPa | 0 mm | - | - | - |
| 1778087708 | 12.78° C | 86% | 1017.8 hPa | 0 mm | - | - | - |
| 1778087405 | 12.78° C | 88% | 1017.8 hPa | 0 mm | - | - | - |
| 1778087108 | 12.22° C | 88% | 1017.8 hPa | 0 mm | - | - | - |
| 1778086805 | 12.22° C | 89% | 1017.8 hPa | 0 mm | - | - | - |
| 1778086508 | 12.22° C | 89% | 1017.8 hPa | 0 mm | - | - | - |
| 1778086205 | 12.22° C | 89% | 1017.8 hPa | 0 mm | - | - | - |
* Rain latest hour (hover to see other rain measurements)
** Current wind speed in m/s (hover to see current wind gust speed)